Weather History for KVCB - November, 2013

Change the Weather History Date:

Thursday, November 14, 2013

  Actual Average Record
Temperature  
Mean Temperature 54 °F -  
Max Temperature 66 °F 64 °F 84 °F (2008)
Min Temperature 43 °F 41 °F 30 °F (1980)
Degree Days  
Heating Degree Days 10    
Growing Degree Days 4 (Base 50)    
Moisture  
Dew Point 44 °F    
Average Humidity 72    
Maximum Humidity 89    
Minimum Humidity 51    
Precipitation  
Precipitation 0.00 in - - ()
Sea Level Pressure  
Sea Level Pressure 29.98 in    
Wind  
Wind Speed 1 mph (SSE)    
Max Wind Speed 6 mph    
Max Gust Speed -    
Visibility 10 miles    
Events      
Averages and records for this station are not official NWS values.
T = Trace of Precipitation, MM = Missing Value Source: NWS Daily Summary

Daily Weather History Graph

Daily Weather History Graph

Search for Another Location

Airport or City:

Trip Planner

Search our weather history database for the weather conditions in past years. The results will help you decide how hot, cold, wet, or windy it might be!

Date:

Astronomy

Nov. 14, 2013 Rise Set
Actual Time 6:48 AM PST 4:55 PM PST
Civil Twilight 6:20 AM PST 5:23 PM PST
Nautical Twilight 5:48 AM PST 5:55 PM PST
Astronomical Twilight 5:17 AM PST 6:27 PM PST
Moon 3:18 PM PST (11/14) 3:51 AM PST (11/14)
Length of Visible Light 11h 03m
Length of Day
10h 06m
Waxing Gibbous, 92% of the Moon is Illuminated
Nov 14
Waxing Gibbous
Nov 17
Full
Nov 25
Last Quarter
Dec 2
New
Dec 9
First Quarter

Hourly Weather History & Observations

Time (PST) Temp. Dew Point Humidity Pressure Visibility Wind Dir Wind Speed Gust Speed Precip Events Conditions
12:53 AM 50.0 °F 42.1 °F 74% 30.07 in 10.0 mi Calm Calm - N/A   Clear
1:53 AM 48.0 °F 39.9 °F 74% 30.08 in 10.0 mi Calm Calm - N/A   Clear
2:53 AM 46.9 °F 39.9 °F 77% 30.07 in 10.0 mi Calm Calm - N/A   Clear
3:53 AM 46.0 °F 39.9 °F 79% 30.06 in 10.0 mi Calm Calm - N/A   Clear
4:53 AM 46.0 °F 41.0 °F 83% 30.06 in 10.0 mi Calm Calm - N/A   Clear
5:53 AM 44.1 °F 41.0 °F 89% 30.05 in 10.0 mi Calm Calm - N/A   Clear
6:53 AM 43.0 °F 39.0 °F 86% 30.05 in 10.0 mi Calm Calm - N/A   Clear
7:53 AM 48.9 °F 42.1 °F 77% 30.08 in 10.0 mi Calm Calm - N/A   Clear
8:53 AM 54.0 °F 43.0 °F 66% 30.09 in 10.0 mi Calm Calm - N/A   Clear
9:53 AM 57.0 °F 45.0 °F 64% 30.07 in 10.0 mi Calm Calm - N/A   Clear
10:53 AM 60.1 °F 45.0 °F 57% 30.06 in 10.0 mi Calm Calm - N/A   Clear
11:53 AM 61.0 °F 46.0 °F 58% 30.02 in 10.0 mi Calm Calm - N/A   Clear
12:53 PM 61.0 °F 46.0 °F 58% 30.00 in 10.0 mi Calm Calm - N/A   Clear
1:53 PM 64.9 °F 48.0 °F 54% 29.97 in 10.0 mi SE 3.5 mph - N/A   Clear
2:53 PM 66.9 °F 48.0 °F 51% 29.94 in 10.0 mi SSE 3.5 mph - N/A   Clear
3:53 PM 64.9 °F 48.0 °F 54% 29.92 in 10.0 mi Calm Calm - N/A   Clear
4:53 PM 57.0 °F 46.9 °F 69% 29.89 in 10.0 mi Calm Calm - N/A   Clear
5:53 PM 52.0 °F 46.0 °F 80% 29.88 in 10.0 mi WSW 3.5 mph - N/A   Clear
6:53 PM 53.1 °F 46.0 °F 77% 29.87 in 10.0 mi SW 3.5 mph - N/A   Clear
7:53 PM 51.1 °F 46.0 °F 83% 29.86 in 10.0 mi Calm Calm - N/A   Clear
8:53 PM 54.0 °F 46.0 °F 75% 29.84 in 10.0 mi Calm Calm - N/A   Clear
9:53 PM 51.1 °F 44.1 °F 77% 29.83 in 10.0 mi SSE 3.5 mph - N/A   Clear
10:53 PM 48.9 °F 43.0 °F 80% 29.84 in 10.0 mi East 5.8 mph - N/A   Clear
11:53 PM 44.1 °F 39.0 °F 82% 29.84 in 10.0 mi Calm Calm - N/A   Clear